sat.trackr.live / text

‹ back to catalog

UNKNOWN

NORAD 87681

UNKNOWN UNKNOWN UNKNOWN

§ Identity

Operator
Country
Launch date
Launch site
Launch vehicle
Mass (kg)
RCS (m²)

External: N2YO · Heavens-Above

§ Orbital elements

Epoch: 2026-05-22T05:45:39.180384Z

Period
105.00 min
Inclination
66.7365°
Eccentricity
0.0148971
Mean motion
13.71453422 rev/d
Perigee alt
884.5 km
Apogee alt
1,104.2 km
Semi-major
7,372.5 km
B*
7.1904e-4
RAAN
78.4004°
Arg perigee
51.9159°
Mean anomaly
309.5238°
Rev number
62,384

§ Raw data

UNKNOWN1 87681U          26142.24003681  .00000628  00000+0  71904-3 0  99982 87681  66.7365  78.4004 0148971  51.9159 309.5238 13.71453422623843

JSON: /api/v1/satellites/87681 · /tle

For live sub-satellite position, see the globe view (requires WebGL).

§ Visibility from observer

Set your observer location to see the next 7 days of passes ≥ 10°. The values pass through the URL so the page stays shareable.

No JS? Fill the form by hand. The geolocation button needs JavaScript.